| time (UTC) | temp F | wind direction | speed MPH | gust MPH | rain 1hr in | rain 24hr in | rain mn in | humidity % | barometer mb |
| 20260510225525 | 56 | 289 | 4.0 | 10.0 | 0.00 | 0.07 | 0.07 | 48 | 1016.0 |
| 20260510225021 | 57 | 0 | 4.0 | 7.0 | 0.00 | 0.07 | 0.07 | 47 | 1015.9 |
| 20260510224517 | 57 | 300 | 4.0 | 7.0 | 0.00 | 0.07 | 0.07 | 49 | 1015.9 |
| 20260510224013 | 57 | 340 | 6.0 | 9.0 | 0.00 | 0.07 | 0.07 | 47 | 1015.7 |
| 20260510223512 | 58 | 336 | 3.0 | 7.0 | 0.00 | 0.07 | 0.07 | 47 | 1015.7 |
| 20260510223009 | 57 | 324 | 5.0 | 7.0 | 0.00 | 0.07 | 0.07 | 48 | 1015.4 |
| 20260510222506 | 57 | 328 | 3.0 | 7.0 | 0.00 | 0.07 | 0.07 | 48 | 1015.3 |
| 20260510222002 | 57 | 280 | 3.0 | 5.0 | 0.00 | 0.07 | 0.07 | 49 | 1015.3 |
| 20260510221458 | 57 | 315 | 4.0 | 6.0 | 0.00 | 0.07 | 0.07 | 48 | 1015.3 |
| 20260510220954 | 58 | 349 | 4.0 | 9.0 | 0.00 | 0.07 | 0.07 | 47 | 1015.2 |
| 20260510220450 | 59 | 333 | 4.0 | 7.0 | 0.00 | 0.07 | 0.07 | 45 | 1015.2 |
| 20260510215947 | 60 | 330 | 4.0 | 7.0 | 0.00 | 0.07 | 0.07 | 43 | 1015.2 |
| 20260510215444 | 59 | 352 | 4.0 | 9.0 | 0.00 | 0.07 | 0.07 | 46 | 1015.0 |
| 20260510214942 | 59 | 320 | 3.0 | 9.0 | 0.00 | 0.07 | 0.07 | 46 | 1014.8 |
| 20260510214438 | 62 | 339 | 5.0 | 7.0 | 0.00 | 0.07 | 0.07 | 41 | 1014.7 |
| 20260510213935 | 61 | 356 | 3.0 | 5.0 | 0.00 | 0.07 | 0.07 | 42 | 1014.8 |
| 20260510213432 | 59 | 312 | 3.0 | 5.0 | 0.00 | 0.07 | 0.07 | 44 | 1014.6 |
| 20260510212928 | 59 | 27 | 4.0 | 8.0 | 0.00 | 0.07 | 0.07 | 44 | 1014.7 |
| 20260510212426 | 59 | 330 | 4.0 | 7.0 | 0.00 | 0.07 | 0.07 | 43 | 1014.4 |
| 20260510211922 | 61 | 276 | 4.0 | 8.0 | 0.00 | 0.07 | 0.07 | 42 | 1014.6 |
| 20260510211420 | 62 | 310 | 4.0 | 6.0 | 0.00 | 0.07 | 0.07 | 41 | 1014.3 |
| 20260510210919 | 62 | 295 | 2.0 | 12.0 | 0.00 | 0.07 | 0.07 | 40 | 1014.2 |
| 20260510210415 | 61 | 305 | 3.0 | 7.0 | 0.00 | 0.07 | 0.07 | 41 | 1014.2 |
| 20260510205914 | 63 | 321 | 2.0 | 6.0 | 0.00 | 0.07 | 0.07 | 40 | 1014.1 |
| 20260510205409 | 63 | 282 | 3.0 | 15.0 | 0.00 | 0.07 | 0.07 | 41 | 1014.3 |
| 20260510204905 | 65 | 309 | 2.0 | 5.0 | 0.00 | 0.07 | 0.07 | 40 | 1013.9 |
| 20260510204402 | 64 | 341 | 3.0 | 7.0 | 0.00 | 0.07 | 0.07 | 42 | 1013.7 |
| 20260510203859 | 64 | 299 | 2.0 | 5.0 | 0.00 | 0.07 | 0.07 | 41 | 1013.6 |
| 20260510203356 | 63 | 299 | 3.0 | 5.0 | 0.00 | 0.07 | 0.07 | 41 | 1013.5 |
| 20260510202850 | 63 | 286 | 2.0 | 8.0 | 0.00 | 0.07 | 0.07 | 42 | 1013.7 |
| 20260510202347 | 63 | 301 | 2.0 | 7.0 | 0.00 | 0.07 | 0.07 | 40 | 1013.6 |
| 20260510201843 | 63 | 318 | 3.0 | 5.0 | 0.00 | 0.07 | 0.07 | 41 | 1013.6 |
| 20260510201341 | 62 | 0 | 3.0 | 5.0 | 0.00 | 0.07 | 0.07 | 44 | 1013.6 |
| 20260510200837 | 60 | 344 | 3.0 | 9.0 | 0.00 | 0.07 | 0.07 | 47 | 1013.6 |
| 20260510200336 | 61 | 326 | 3.0 | 11.0 | 0.00 | 0.07 | 0.07 | 43 | 1013.9 |
| 20260510195831 | 60 | 302 | 1.0 | 5.0 | 0.00 | 0.07 | 0.07 | 46 | 1013.8 |
| 20260510195328 | 60 | 247 | 8.0 | 13.0 | 0.00 | 0.07 | 0.07 | 42 | 1013.9 |
| 20260510194823 | 60 | 247 | 7.0 | 14.0 | 0.00 | 0.07 | 0.07 | 43 | 1013.7 |
| 20260510194320 | 61 | 237 | 4.0 | 7.0 | 0.00 | 0.07 | 0.07 | 44 | 1013.7 |
| 20260510193815 | 62 | 243 | 6.0 | 9.0 | 0.00 | 0.07 | 0.07 | 43 | 1013.8 |
| 20260510193310 | 62 | 233 | 7.0 | 9.0 | 0.00 | 0.07 | 0.07 | 42 | 1013.9 |
| 20260510192806 | 62 | 312 | 3.0 | 7.0 | 0.00 | 0.07 | 0.07 | 47 | 1013.9 |
| 20260510192301 | 60 | 249 | 8.0 | 15.0 | 0.00 | 0.07 | 0.07 | 46 | 1014.1 |
| 20260510191758 | 61 | 347 | 5.0 | 11.0 | 0.00 | 0.07 | 0.07 | 44 | 1013.7 |
| 20260510191254 | 61 | 344 | 3.0 | 5.0 | 0.00 | 0.07 | 0.07 | 45 | 1013.9 |
| 20260510190752 | 62 | 260 | 2.0 | 4.0 | 0.00 | 0.07 | 0.07 | 46 | 1014.2 |
| 20260510190248 | 61 | 17 | 2.0 | 7.0 | 0.00 | 0.07 | 0.07 | 43 | 1014.1 |
| 20260510185744 | 62 | 58 | 3.0 | 4.0 | 0.00 | 0.07 | 0.07 | 47 | 1014.2 |
| 20260510185243 | 60 | 11 | 3.0 | 5.0 | 0.00 | 0.07 | 0.07 | 46 | 1014.1 |
| 20260510184739 | 59 | 0 | 2.0 | 4.0 | 0.00 | 0.07 | 0.07 | 47 | 1014.3 |
| 20260510184237 | 61 | 233 | 4.0 | 5.0 | 0.00 | 0.07 | 0.07 | 43 | 1014.2 |
| 20260510183731 | 60 | 240 | 6.0 | 13.0 | 0.00 | 0.07 | 0.07 | 45 | 1014.4 |
| 20260510183227 | 60 | 265 | 4.0 | 17.0 | 0.00 | 0.07 | 0.07 | 50 | 1014.4 |
| 20260510182723 | 60 | 229 | 7.0 | 11.0 | 0.00 | 0.07 | 0.07 | 45 | 1014.2 |
| 20260510182219 | 60 | 346 | 8.0 | 8.0 | 0.00 | 0.07 | 0.07 | 48 | 1014.2 |
| 20260510181716 | 60 | 250 | 11.0 | 13.0 | 0.00 | 0.07 | 0.07 | 47 | 1014.3 |
| 20260510181213 | 60 | 256 | 4.0 | 7.0 | 0.00 | 0.07 | 0.07 | 46 | 1014.2 |
| 20260510180709 | 60 | 199 | 5.0 | 10.0 | 0.00 | 0.07 | 0.07 | 48 | 1014.2 |
| 20260510180207 | 60 | 224 | 3.0 | 5.0 | 0.00 | 0.07 | 0.07 | 46 | 1014.0 |
| 20260510175703 | 59 | 27 | 2.0 | 5.0 | 0.00 | 0.07 | 0.07 | 47 | 1014.3 |
| 20260510175158 | 59 | 156 | 2.0 | 7.0 | 0.00 | 0.07 | 0.07 | 47 | 1014.3 |
| 20260510174656 | 59 | 328 | 3.0 | 5.0 | 0.00 | 0.07 | 0.07 | 46 | 1014.3 |
| 20260510174153 | 59 | 328 | 3.0 | 6.0 | 0.00 | 0.07 | 0.07 | 48 | 1014.3 |
| 20260510173649 | 59 | 308 | 2.0 | 7.0 | 0.00 | 0.07 | 0.07 | 52 | 1014.4 |
| 20260510173145 | 58 | 242 | 7.0 | 11.0 | 0.00 | 0.07 | 0.07 | 49 | 1014.3 |
| 20260510172641 | 58 | 196 | 3.0 | 8.0 | 0.00 | 0.07 | 0.07 | 55 | 1014.3 |
| 20260510172137 | 58 | 226 | 3.0 | 8.0 | 0.00 | 0.07 | 0.07 | 52 | 1014.3 |
| 20260510171634 | 58 | 272 | 1.0 | 3.0 | 0.00 | 0.07 | 0.07 | 55 | 1014.3 |
| 20260510171132 | 56 | 158 | 3.0 | 10.0 | 0.00 | 0.07 | 0.07 | 64 | 1014.3 |
| 20260510170628 | 57 | 217 | 3.0 | 5.0 | 0.00 | 0.07 | 0.07 | 57 | 1014.6 |
| 20260510170124 | 57 | 246 | 2.0 | 3.0 | 0.00 | 0.07 | 0.07 | 59 | 1014.6 |
| 20260510165620 | 57 | 12 | 2.0 | 3.0 | 0.00 | 0.07 | 0.07 | 63 | 1014.9 |
| 20260510165116 | 56 | 101 | 2.0 | 3.0 | 0.00 | 0.07 | 0.07 | 62 | 1014.6 |
| 20260510164614 | 55 | 318 | 0.0 | 4.0 | 0.00 | 0.07 | 0.07 | 62 | 1014.9 |
| 20260510164110 | 55 | 260 | 1.0 | 3.0 | 0.00 | 0.07 | 0.07 | 62 | 1014.7 |
| 20260510163605 | 55 | 5 | 4.0 | 5.0 | 0.00 | 0.07 | 0.07 | 62 | 1014.6 |
| 20260510163102 | 54 | 351 | 2.0 | 4.0 | 0.00 | 0.07 | 0.07 | 66 | 1014.7 |
| 20260510162556 | 53 | 29 | 2.0 | 5.0 | 0.00 | 0.07 | 0.07 | 62 | 1014.8 |
| 20260510162053 | 53 | 13 | 1.0 | 3.0 | 0.00 | 0.07 | 0.07 | 65 | 1014.7 |
| 20260510161549 | 53 | 347 | 3.0 | 7.0 | 0.00 | 0.07 | 0.07 | 62 | 1014.3 |
| 20260510161046 | 53 | 356 | 2.0 | 7.0 | 0.00 | 0.07 | 0.07 | 67 | 1014.4 |
| 20260510160543 | 53 | 329 | 2.0 | 5.0 | 0.00 | 0.07 | 0.07 | 70 | 1014.6 |
| 20260510160042 | 53 | 330 | 0.0 | 6.0 | 0.00 | 0.07 | 0.07 | 71 | 1014.6 |
| 20260510155539 | 53 | 326 | 2.0 | 3.0 | 0.00 | 0.07 | 0.07 | 76 | 1014.6 |
| 20260510155036 | 53 | 337 | 2.0 | 4.0 | 0.00 | 0.07 | 0.07 | 75 | 1014.4 |
| 20260510154531 | 53 | 245 | 0.0 | 3.0 | 0.00 | 0.07 | 0.07 | 78 | 1014.7 |
| 20260510154026 | 53 | 22 | 3.0 | 4.0 | 0.00 | 0.07 | 0.07 | 75 | 1014.4 |
| 20260510153521 | 53 | 328 | 2.0 | 3.0 | 0.00 | 0.07 | 0.07 | 77 | 1014.3 |
| 20260510153019 | 53 | 237 | 3.0 | 4.0 | 0.00 | 0.07 | 0.07 | 77 | 1014.6 |
| 20260510152516 | 52 | 22 | 1.0 | 2.0 | 0.00 | 0.07 | 0.07 | 80 | 1014.2 |
| 20260510152012 | 51 | 352 | 0.0 | 2.0 | 0.00 | 0.07 | 0.07 | 80 | 1014.3 |
| 20260510151509 | 51 | 325 | 2.0 | 3.0 | 0.00 | 0.07 | 0.07 | 81 | 1014.3 |
| 20260510151006 | 51 | 61 | 0.0 | 4.0 | 0.00 | 0.07 | 0.07 | 82 | 1014.3 |
| 20260510150456 | 51 | 6 | 2.0 | 4.0 | 0.00 | 0.07 | 0.07 | 82 | 1014.0 |
| 20260510145952 | 51 | 13 | 4.0 | 5.0 | 0.00 | 0.07 | 0.07 | 81 | 1013.9 |
| 20260510145448 | 51 | 357 | 2.0 | 4.0 | 0.00 | 0.07 | 0.07 | 81 | 1014.0 |
| 20260510144945 | 51 | 309 | 2.0 | 7.0 | 0.00 | 0.07 | 0.07 | 80 | 1013.8 |
| 20260510144442 | 51 | 302 | 3.0 | 5.0 | 0.00 | 0.07 | 0.07 | 82 | 1014.0 |
| 20260510143937 | 51 | 74 | 1.0 | 4.0 | 0.00 | 0.07 | 0.07 | 83 | 1013.8 |
| 20260510143433 | 51 | 75 | 3.0 | 5.0 | 0.00 | 0.07 | 0.07 | 83 | 1013.8 |
| 20260510142930 | 50 | 350 | 3.0 | 7.0 | 0.00 | 0.07 | 0.07 | 83 | 1013.8 |
| 20260510142421 | 50 | 43 | 2.0 | 7.0 | 0.00 | 0.07 | 0.07 | 84 | 1013.7 |
| 20260510141917 | 50 | 274 | 0.0 | 3.0 | 0.00 | 0.07 | 0.07 | 84 | 1013.8 |
| 20260510141415 | 50 | 336 | 2.0 | 3.0 | 0.00 | 0.07 | 0.07 | 85 | 1013.5 |
| 20260510140911 | 50 | 0 | 3.0 | 5.0 | 0.00 | 0.07 | 0.07 | 85 | 1013.6 |
| 20260510140408 | 49 | 337 | 3.0 | 8.0 | 0.00 | 0.07 | 0.07 | 85 | 1013.5 |
| 20260510135901 | 49 | 314 | 2.0 | 6.0 | 0.00 | 0.07 | 0.07 | 87 | 1013.5 |
| 20260510135358 | 50 | 309 | 2.0 | 4.0 | 0.00 | 0.07 | 0.07 | 88 | 1013.4 |
| 20260510134855 | 50 | 18 | 2.0 | 4.0 | 0.00 | 0.07 | 0.07 | 88 | 1013.3 |
| 20260510134351 | 50 | 13 | 2.0 | 4.0 | 0.00 | 0.07 | 0.07 | 87 | 1013.3 |
| 20260510133848 | 50 | 9 | 2.0 | 5.0 | 0.00 | 0.07 | 0.07 | 87 | 1012.8 |
| 20260510133344 | 50 | 1 | 3.0 | 3.0 | 0.00 | 0.07 | 0.07 | 87 | 1012.8 |
| 20260510132839 | 50 | 353 | 2.0 | 5.0 | 0.00 | 0.07 | 0.07 | 88 | 1012.8 |
| 20260510132338 | 49 | 340 | 1.0 | 6.0 | 0.00 | 0.07 | 0.07 | 89 | 1012.9 |
| 20260510131834 | 49 | 352 | 3.0 | 5.0 | 0.00 | 0.07 | 0.07 | 91 | 1012.9 |
| 20260510131332 | 48 | 335 | 3.0 | 8.0 | 0.00 | 0.07 | 0.07 | 96 | 1013.0 |
| 20260510130828 | 48 | 17 | 3.0 | 4.0 | 0.00 | 0.07 | 0.07 | 96 | 1013.0 |
| 20260510130326 | 48 | 346 | 3.0 | 6.0 | 0.00 | 0.07 | 0.07 | 96 | 1012.9 |
| 20260510125822 | 50 | 333 | 3.0 | 4.0 | 0.00 | 0.07 | 0.07 | 96 | 1013.0 |
| 20260510125318 | 50 | 283 | 0.0 | 2.0 | 0.00 | 0.07 | 0.07 | 96 | 1012.9 |
| 20260510124815 | 50 | 225 | 3.0 | 5.0 | 0.00 | 0.07 | 0.07 | 96 | 1012.7 |
| 20260510124312 | 50 | 224 | 0.0 | 2.0 | 0.00 | 0.07 | 0.07 | 96 | 1012.7 |
| 20260510123808 | 50 | 205 | 0.0 | 2.0 | 0.00 | 0.07 | 0.07 | 96 | 1012.7 |
| 20260510123304 | 50 | 232 | 0.0 | 3.0 | 0.00 | 0.07 | 0.07 | 96 | 1012.7 |
| 20260510122800 | 50 | 76 | 0.0 | 1.0 | 0.00 | 0.07 | 0.07 | 96 | 1012.3 |
| 20260510122256 | 49 | 48 | 0.0 | 2.0 | 0.00 | 0.07 | 0.07 | 96 | 1012.5 |
| 20260510121753 | 49 | 127 | 0.0 | 2.0 | 0.00 | 0.07 | 0.07 | 96 | 1012.3 |
| 20260510121250 | 49 | 60 | 0.0 | 0.0 | 0.00 | 0.07 | 0.07 | 96 | 1012.1 |
| 20260510120747 | 49 | 60 | 0.0 | 1.0 | 0.00 | 0.07 | 0.07 | 96 | 1012.1 |
| 20260510120244 | 49 | 106 | 0.0 | 2.0 | 0.00 | 0.07 | 0.07 | 96 | 1012.1 |
| 20260510115739 | 49 | 99 | 1.0 | 3.0 | 0.00 | 0.07 | 0.07 | 96 | 1012.0 |
| 20260510115238 | 49 | 77 | 0.0 | 2.0 | 0.02 | 0.07 | 0.07 | 96 | 1012.1 |
| 20260510114732 | 49 | 164 | 0.0 | 1.0 | 0.02 | 0.07 | 0.07 | 96 | 1011.8 |
| 20260510114230 | 49 | 86 | 2.0 | 2.0 | 0.00 | 0.07 | 0.07 | 96 | 1011.5 |
| 20260510113725 | 48 | 121 | 0.0 | 2.0 | 0.00 | 0.07 | 0.07 | 96 | 1011.5 |
| 20260510113223 | 48 | 73 | 0.0 | 2.0 | 0.00 | 0.07 | 0.07 | 96 | 1011.6 |
| 20260510112719 | 47 | 89 | 0.0 | 2.0 | 0.00 | 0.07 | 0.07 | 96 | 1011.6 |
| 20260510112216 | 47 | 118 | 0.0 | 2.0 | 0.00 | 0.07 | 0.07 | 96 | 1011.4 |
| 20260510111711 | 47 | 82 | 0.0 | 3.0 | 0.00 | 0.07 | 0.07 | 96 | 1011.4 |
| 20260510111208 | 47 | 113 | 0.0 | 2.0 | 0.00 | 0.07 | 0.07 | 96 | 1011.3 |
| 20260510110703 | 48 | 119 | 0.0 | 1.0 | 0.00 | 0.07 | 0.07 | 96 | 1011.1 |
| 20260510110201 | 47 | 114 | 1.0 | 2.0 | 0.00 | 0.07 | 0.07 | 96 | 1011.0 |
| 20260510105655 | 47 | 145 | 1.0 | 2.0 | 0.00 | 0.07 | 0.07 | 96 | 1011.0 |
| 20260510105150 | 46 | 125 | 2.0 | 3.0 | 0.00 | 0.07 | 0.07 | 96 | 1010.8 |
| 20260510104647 | 46 | 100 | 1.0 | 2.0 | 0.00 | 0.07 | 0.07 | 96 | 1010.6 |
| 20260510104144 | 46 | 55 | 0.0 | 1.0 | 0.00 | 0.07 | 0.07 | 96 | 1010.7 |
| 20260510103641 | 46 | 124 | 1.0 | 2.0 | 0.00 | 0.07 | 0.07 | 96 | 1010.5 |
| 20260510103137 | 46 | 109 | 0.0 | 3.0 | 0.00 | 0.07 | 0.07 | 96 | 1010.6 |
| 20260510102632 | 46 | 130 | 2.0 | 3.0 | 0.00 | 0.07 | 0.07 | 96 | 1010.6 |
| 20260510102128 | 45 | 145 | 0.0 | 2.0 | 0.00 | 0.07 | 0.07 | 96 | 1010.5 |
| 20260510101626 | 45 | 117 | 1.0 | 2.0 | 0.00 | 0.07 | 0.07 | 96 | 1010.1 |
| 20260510101124 | 45 | 81 | 1.0 | 2.0 | 0.00 | 0.07 | 0.07 | 96 | 1010.3 |
| 20260510100620 | 45 | 128 | 0.0 | 2.0 | 0.00 | 0.07 | 0.07 | 96 | 1010.2 |
| 20260510100118 | 45 | 87 | 1.0 | 2.0 | 0.00 | 0.07 | 0.07 | 96 | 1010.3 |
| 20260510095613 | 45 | 65 | 0.0 | 1.0 | 0.00 | 0.07 | 0.07 | 96 | 1010.3 |
| 20260510095113 | 46 | 128 | 0.0 | 2.0 | 0.00 | 0.07 | 0.07 | 96 | 1010.2 |
| 20260510094612 | 46 | 89 | 0.0 | 2.0 | 0.00 | 0.07 | 0.07 | 96 | 1010.0 |
| 20260510094108 | 46 | 94 | 2.0 | 3.0 | 0.00 | 0.07 | 0.07 | 96 | 1010.0 |
| 20260510093605 | 45 | 100 | 2.0 | 3.0 | 0.00 | 0.07 | 0.07 | 96 | 1010.0 |
| 20260510093101 | 45 | 78 | 0.0 | 2.0 | 0.00 | 0.07 | 0.07 | 96 | 1010.1 |
| 20260510092558 | 45 | 37 | 2.0 | 3.0 | 0.00 | 0.07 | 0.07 | 96 | 1010.0 |
| 20260510092058 | 45 | 100 | 2.0 | 3.0 | 0.00 | 0.07 | 0.07 | 96 | 1010.0 |
| 20260510091555 | 45 | 101 | 2.0 | 2.0 | 0.00 | 0.07 | 0.07 | 96 | 1009.7 |
| 20260510091051 | 46 | 110 | 0.0 | 2.0 | 0.00 | 0.07 | 0.07 | 96 | 1009.7 |
| 20260510090548 | 46 | 101 | 2.0 | 3.0 | 0.00 | 0.07 | 0.07 | 96 | 1009.7 |
| 20260510090043 | 45 | 101 | 2.0 | 3.0 | 0.00 | 0.07 | 0.07 | 96 | 1009.7 |
| 20260510085538 | 45 | 104 | 2.0 | 2.0 | 0.00 | 0.07 | 0.07 | 96 | 1009.7 |
| 20260510085035 | 45 | 89 | 1.0 | 2.0 | 0.00 | 0.07 | 0.07 | 96 | 1009.5 |
| 20260510084532 | 45 | 101 | 1.0 | 2.0 | 0.00 | 0.07 | 0.07 | 96 | 1009.3 |
| 20260510084029 | 45 | 73 | 0.0 | 2.0 | 0.00 | 0.07 | 0.07 | 96 | 1009.6 |
| 20260510083525 | 45 | 98 | 0.0 | 2.0 | 0.00 | 0.07 | 0.07 | 96 | 1009.3 |
| 20260510083021 | 45 | 111 | 0.0 | 2.0 | 0.00 | 0.07 | 0.07 | 96 | 1009.6 |
| 20260510082518 | 45 | 105 | 2.0 | 2.0 | 0.00 | 0.07 | 0.07 | 96 | 1009.5 |
| 20260510082013 | 45 | 56 | 1.0 | 2.0 | 0.00 | 0.07 | 0.07 | 96 | 1009.3 |
| 20260510081508 | 46 | 77 | 0.0 | 2.0 | 0.00 | 0.07 | 0.07 | 96 | 1009.5 |
| 20260510081005 | 46 | 110 | 1.0 | 3.0 | 0.00 | 0.07 | 0.07 | 96 | 1009.3 |
| 20260510080503 | 46 | 104 | 1.0 | 2.0 | 0.00 | 0.07 | 0.07 | 96 | 1009.2 |
| 20260510080000 | 45 | 101 | 2.0 | 2.0 | 0.00 | 0.07 | 0.07 | 96 | 1009.1 |
| 20260510075458 | 46 | 94 | 2.0 | 2.0 | 0.00 | 0.07 | 0.07 | 96 | 1009.1 |
| 20260510074954 | 46 | 76 | 1.0 | 2.0 | 0.00 | 0.07 | 0.07 | 96 | 1009.1 |
| 20260510074452 | 46 | 87 | 1.0 | 2.0 | 0.00 | 0.07 | 0.07 | 96 | 1009.1 |
| 20260510073948 | 46 | 92 | 2.0 | 2.0 | 0.00 | 0.07 | 0.07 | 96 | 1008.9 |
| 20260510073443 | 46 | 89 | 1.0 | 1.0 | 0.00 | 0.07 | 0.07 | 96 | 1009.1 |
| 20260510072940 | 46 | 117 | 1.0 | 2.0 | 0.00 | 0.07 | 0.07 | 96 | 1009.0 |
| 20260510072437 | 46 | 119 | 0.0 | 3.0 | 0.00 | 0.07 | 0.07 | 96 | 1008.9 |
| 20260510071933 | 46 | 89 | 2.0 | 3.0 | 0.00 | 0.07 | 0.07 | 96 | 1009.1 |
| 20260510071429 | 46 | 93 | 1.0 | 2.0 | 0.00 | 0.07 | 0.07 | 96 | 1008.9 |
| 20260510070927 | 46 | 95 | 2.0 | 2.0 | 0.00 | 0.07 | 0.07 | 96 | 1008.9 |
| 20260510070425 | 47 | 88 | 2.0 | 2.0 | 0.00 | 0.07 | 0.07 | 96 | 1009.0 |
| 20260510065920 | 47 | 103 | 3.0 | 3.0 | 0.00 | 0.07 | 0.07 | 96 | 1009.0 |
| 20260510065417 | 47 | 147 | 0.0 | 2.0 | 0.00 | 0.07 | 0.07 | 96 | 1009.1 |
| 20260510064913 | 47 | 101 | 1.0 | 2.0 | 0.00 | 0.07 | 0.07 | 96 | 1008.8 |
| 20260510064411 | 47 | 92 | 1.0 | 1.0 | 0.02 | 0.07 | 0.07 | 96 | 1009.1 |
| 20260510063907 | 47 | 87 | 0.0 | 2.0 | 0.02 | 0.07 | 0.07 | 96 | 1009.0 |
| 20260510063403 | 48 | 66 | 2.0 | 3.0 | 0.00 | 0.06 | 0.06 | 96 | 1009.1 |
| 20260510062901 | 48 | 98 | 2.0 | 3.0 | 0.02 | 0.06 | 0.06 | 96 | 1009.1 |
| 20260510062356 | 48 | 114 | 2.0 | 3.0 | 0.02 | 0.06 | 0.06 | 96 | 1009.1 |
| 20260510061851 | 48 | 89 | 0.0 | 1.0 | 0.02 | 0.06 | 0.06 | 96 | 1009.0 |
| 20260510061348 | 48 | 89 | 0.0 | 3.0 | 0.05 | 0.06 | 0.06 | 96 | 1009.1 |
| 20260510060844 | 48 | 171 | 0.0 | 8.0 | 0.02 | 0.06 | 0.06 | 96 | 1009.2 |
| 20260510060341 | 48 | 121 | 3.0 | 4.0 | 0.02 | 0.05 | 0.05 | 96 | 1009.6 |
| 20260510055838 | 48 | 202 | 2.0 | 2.0 | 0.05 | 0.05 | 0.05 | 96 | 1009.5 |
| 20260510055336 | 48 | 115 | 3.0 | 5.0 | 0.02 | 0.05 | 0.05 | 96 | 1009.1 |
| 20260510054831 | 48 | 101 | 0.0 | 2.0 | 0.02 | 0.04 | 0.04 | 96 | 1009.5 |
| 20260510054326 | 48 | 183 | 2.0 | 2.0 | 0.05 | 0.04 | 0.04 | 96 | 1009.6 |
| 20260510053822 | 48 | 127 | 2.0 | 3.0 | 0.02 | 0.04 | 0.04 | 96 | 1009.6 |
| 20260510053317 | 48 | 139 | 3.0 | 5.0 | 0.02 | 0.04 | 0.04 | 96 | 1009.6 |
| 20260510052814 | 48 | 184 | 2.0 | 4.0 | 0.02 | 0.04 | 0.04 | 96 | 1010.0 |
| 20260510052310 | 48 | 184 | 2.0 | 4.0 | 0.02 | 0.03 | 0.03 | 96 | 1009.9 |
| 20260510051806 | 48 | 105 | 2.0 | 3.0 | 0.02 | 0.03 | 0.03 | 96 | 1010.0 |
| 20260510051303 | 48 | 124 | 4.0 | 4.0 | 0.02 | 0.02 | 0.02 | 96 | 1010.2 |
| 20260510050800 | 48 | 124 | 4.0 | 4.0 | 0.05 | 0.02 | 0.02 | 96 | 1010.2 |
| 20260510050257 | 49 | 124 | 4.0 | 5.0 | 0.05 | 0.02 | 0.02 | 96 | 1010.4 |
| 20260510045754 | 49 | 135 | 2.0 | 4.0 | 0.05 | 0.02 | 0.02 | 96 | 1010.5 |
| 20260510045250 | 49 | 120 | 3.0 | 4.0 | 0.05 | 0.01 | 0.01 | 96 | 1010.8 |
| 20260510044747 | 49 | 137 | 1.0 | 2.0 | 0.02 | 0.01 | 0.01 | 95 | 1010.7 |
| 20260510044245 | 49 | 109 | 3.0 | 4.0 | 0.02 | 0.00 | 0.00 | 93 | 1010.6 |
| 20260510043740 | 50 | 116 | 3.0 | 4.0 | 0.02 | 0.00 | 0.00 | 92 | 1010.6 |
| 20260510043237 | 50 | 214 | 2.0 | 3.0 | 0.00 | 0.00 | 0.00 | 90 | 1010.7 |
| 20260510042734 | 50 | 253 | 5.0 | 6.0 | 0.00 | 0.00 | 0.00 | 90 | 1010.7 |
| 20260510042229 | 50 | 335 | 2.0 | 4.0 | 0.00 | 0.00 | 0.00 | 89 | 1010.6 |
| 20260510041727 | 51 | 252 | 5.0 | 7.0 | 0.00 | 0.00 | 0.00 | 88 | 1010.8 |
| 20260510041224 | 51 | 304 | 3.0 | 6.0 | 0.00 | 0.00 | 0.00 | 88 | 1010.7 |
| 20260510040721 | 51 | 221 | 3.0 | 9.0 | 0.00 | 0.00 | 0.00 | 89 | 1010.5 |
| 20260510040218 | 51 | 331 | 2.0 | 8.0 | 0.00 | 0.00 | 0.00 | 90 | 1010.3 |
| 20260510035713 | 50 | 246 | 12.0 | 16.0 | 0.00 | 0.37 | 0.37 | 92 | 1010.4 |
| 20260510035209 | 50 | 264 | 5.0 | 9.0 | 0.00 | 0.37 | 0.37 | 96 | 1010.5 |
| 20260510034705 | 50 | 242 | 6.0 | 10.0 | 0.00 | 0.37 | 0.37 | 96 | 1010.3 |
| 20260510034203 | 50 | 331 | 3.0 | 14.0 | 0.00 | 0.37 | 0.37 | 96 | 1010.2 |
| 20260510033659 | 50 | 147 | 1.0 | 4.0 | 0.00 | 0.37 | 0.37 | 96 | 1009.3 |
| 20260510033157 | 49 | 146 | 3.0 | 5.0 | 0.00 | 0.37 | 0.37 | 96 | 1009.2 |
| 20260510032653 | 49 | 176 | 2.0 | 3.0 | 0.00 | 0.37 | 0.37 | 96 | 1009.1 |
| 20260510032149 | 49 | 126 | 2.0 | 4.0 | 0.00 | 0.37 | 0.37 | 96 | 1009.0 |
| 20260510031643 | 49 | 125 | 3.0 | 5.0 | 0.00 | 0.37 | 0.37 | 96 | 1008.9 |
| 20260510031140 | 49 | 128 | 3.0 | 4.0 | 0.00 | 0.37 | 0.37 | 96 | 1009.1 |
| 20260510030635 | 49 | 104 | 2.0 | 3.0 | 0.00 | 0.37 | 0.37 | 96 | 1009.1 |
| 20260510030133 | 49 | 171 | 3.0 | 6.0 | 0.00 | 0.37 | 0.37 | 96 | 1009.5 |
| 20260510025630 | 49 | 110 | 1.0 | 3.0 | 0.00 | 0.37 | 0.37 | 96 | 1009.2 |
| 20260510025127 | 49 | 113 | 3.0 | 3.0 | 0.00 | 0.37 | 0.37 | 96 | 1009.2 |
| 20260510024623 | 49 | 131 | 2.0 | 3.0 | 0.00 | 0.37 | 0.37 | 96 | 1009.0 |
| 20260510024120 | 49 | 132 | 0.0 | 3.0 | 0.00 | 0.37 | 0.37 | 96 | 1009.0 |
| 20260510023616 | 49 | 141 | 2.0 | 6.0 | 0.00 | 0.37 | 0.37 | 96 | 1008.8 |
| 20260510023114 | 49 | 149 | 5.0 | 6.0 | 0.00 | 0.37 | 0.37 | 96 | 1008.5 |
| 20260510022613 | 49 | 166 | 2.0 | 3.0 | 0.00 | 0.37 | 0.37 | 96 | 1008.5 |
| 20260510022108 | 49 | 150 | 1.0 | 3.0 | 0.00 | 0.37 | 0.37 | 96 | 1008.5 |
| 20260510021604 | 49 | 127 | 3.0 | 4.0 | 0.00 | 0.37 | 0.37 | 96 | 1008.5 |
| 20260510021102 | 49 | 152 | 2.0 | 3.0 | 0.00 | 0.37 | 0.37 | 96 | 1008.6 |
| 20260510020556 | 49 | 146 | 3.0 | 5.0 | 0.00 | 0.37 | 0.37 | 96 | 1008.5 |
| 20260510020052 | 49 | 166 | 0.0 | 3.0 | 0.00 | 0.37 | 0.37 | 96 | 1008.4 |
| 20260510015548 | 49 | 125 | 3.0 | 4.0 | 0.00 | 0.37 | 0.37 | 96 | 1008.7 |
| 20260510015044 | 49 | 118 | 2.0 | 3.0 | 0.00 | 0.37 | 0.37 | 96 | 1008.4 |
| 20260510014540 | 49 | 127 | 0.0 | 3.0 | 0.00 | 0.37 | 0.37 | 96 | 1008.3 |
| 20260510014038 | 49 | 132 | 2.0 | 4.0 | 0.00 | 0.37 | 0.37 | 96 | 1008.3 |
| 20260510013532 | 49 | 121 | 1.0 | 2.0 | 0.00 | 0.37 | 0.37 | 96 | 1008.0 |
| 20260510013028 | 50 | 130 | 3.0 | 4.0 | 0.00 | 0.37 | 0.37 | 96 | 1008.3 |
| 20260510012528 | 50 | 140 | 3.0 | 5.0 | 0.00 | 0.37 | 0.37 | 96 | 1008.4 |
| 20260510012025 | 50 | 126 | 2.0 | 5.0 | 0.00 | 0.37 | 0.37 | 96 | 1008.1 |
| 20260510011524 | 50 | 140 | 2.0 | 7.0 | 0.00 | 0.37 | 0.37 | 96 | 1008.1 |
| 20260510011020 | 50 | 204 | 1.0 | 3.0 | 0.00 | 0.37 | 0.37 | 96 | 1008.2 |
| 20260510010518 | 50 | 158 | 1.0 | 2.0 | 0.00 | 0.37 | 0.37 | 96 | 1008.0 |
| 20260510010014 | 50 | 310 | 1.0 | 4.0 | 0.00 | 0.37 | 0.37 | 96 | 1008.0 |
| 20260510005510 | 50 | 135 | 0.0 | 3.0 | 0.00 | 0.37 | 0.37 | 96 | 1007.9 |
| 20260510005008 | 50 | 129 | 2.0 | 3.0 | 0.00 | 0.37 | 0.37 | 96 | 1007.9 |
| 20260510004505 | 50 | 99 | 1.0 | 2.0 | 0.00 | 0.37 | 0.37 | 96 | 1008.1 |
| 20260510004003 | 50 | 103 | 0.0 | 2.0 | 0.00 | 0.37 | 0.37 | 96 | 1007.7 |
| 20260510003459 | 50 | 155 | 3.0 | 4.0 | 0.00 | 0.37 | 0.37 | 96 | 1007.8 |
| 20260510002955 | 50 | 158 | 3.0 | 4.0 | 0.00 | 0.37 | 0.37 | 96 | 1007.6 |
| 20260510002451 | 51 | 133 | 1.0 | 3.0 | 0.00 | 0.37 | 0.37 | 96 | 1007.6 |
| 20260510001948 | 51 | 159 | 2.0 | 3.0 | 0.00 | 0.37 | 0.37 | 96 | 1007.7 |
| 20260510001445 | 51 | 132 | 3.0 | 6.0 | 0.00 | 0.37 | 0.37 | 96 | 1007.3 |
| 20260510000943 | 51 | 106 | 2.0 | 5.0 | 0.00 | 0.37 | 0.37 | 96 | 1007.7 |
| 20260510000440 | 51 | 148 | 3.0 | 5.0 | 0.00 | 0.37 | 0.37 | 96 | 1007.7 |
| 20260509235935 | 51 | 173 | 2.0 | 5.0 | 0.00 | 0.37 | 0.37 | 96 | 1007.4 |
| 20260509235432 | 51 | 120 | 2.0 | 3.0 | 0.00 | 0.37 | 0.37 | 95 | 1007.4 |
| 20260509234928 | 52 | 126 | 2.0 | 4.0 | 0.00 | 0.37 | 0.37 | 95 | 1007.3 |
| 20260509234425 | 52 | 119 | 2.0 | 5.0 | 0.00 | 0.37 | 0.37 | 94 | 1007.5 |
| 20260509233923 | 52 | 120 | 0.0 | 6.0 | 0.00 | 0.37 | 0.37 | 94 | 1007.5 |
| 20260509233421 | 53 | 123 | 0.0 | 3.0 | 0.00 | 0.37 | 0.37 | 93 | 1007.3 |
| 20260509232916 | 53 | 147 | 3.0 | 6.0 | 0.00 | 0.37 | 0.37 | 92 | 1007.2 |
| 20260509232414 | 53 | 120 | 2.0 | 5.0 | 0.00 | 0.37 | 0.37 | 91 | 1007.2 |
| 20260509231910 | 54 | 148 | 2.0 | 5.0 | 0.00 | 0.37 | 0.37 | 91 | 1007.2 |
| 20260509231407 | 54 | 127 | 1.0 | 7.0 | 0.00 | 0.37 | 0.37 | 90 | 1007.3 |
| 20260509230905 | 54 | 199 | 2.0 | 8.0 | 0.00 | 0.37 | 0.37 | 90 | 1007.2 |
| 20260509230401 | 55 | 117 | 3.0 | 5.0 | 0.00 | 0.37 | 0.37 | 91 | 1007.3 |